Regional Weather Roundup
Issued by NWS

Home | Current Version | Previous Version | Text Only | Print | Product List | Glossary Off
Versions: 1 2 3 4 5 6 7 8 9 10 11 12 13 14 15 16 17 18 19 20 21 22 23 24 25 26 27 28 29 30 31 32 33 34 35 36 37 38 39 40 41 42 43 44 45 46 47 48 49 50

000
ASUS43 KMPX 281110
RWRMN
WEATHER ROUNDUP FOR MINNESOTA
NATIONAL WEATHER SERVICE TWIN CITIES/CHANHASSEN MN
600 AM CDT TUE MAR 28 2017


NOTE: "FAIR" INDICATES FEW OR NO CLOUDS BELOW 12,000 FEET WITH NO
SIGNIFICANT WEATHER AND/OR OBSTRUCTIONS TO VISIBILITY. N/A MEANS
CURRENT SKY AND/OR WEATHER CONDITIONS ARE NOT AVAILABLE.

MNZ060>063-068>070-281200-
   Twin Cities Metro

CITY           SKY/WX    TMP DP  RH WIND       PRES   REMARKS
TWIN CITIES    PTCLDY    36  33  89 NW3       30.09R
ST PAUL        CLEAR     35  33  92 CALM      30.10R
CRYSTAL        CLEAR     32  28  85 CALM      30.08R
BLAINE         CLEAR     30  30 100 CALM      30.09R
LAKEVILLE      PTCLDY    28  28 100 CALM      30.09R FOG
EDEN PRAIRIE   CLEAR     36  32  85 CALM      30.08R
SOUTH ST PAUL  CLOUDY    33  32  98 CALM      30.09R
LAKE ELMO      FAIR      30  30 100 CALM      30.10R
$$
MNZ001>005-007-008-013>017-022>024-027-028-281200-
   Northwest Minnesota

CITY           SKY/WX    TMP DP  RH WIND       PRES   REMARKS
BEMIDJI        CLEAR     29  26  89 CALM      30.08R
HALLOCK        CLEAR     32  30  93 N5        30.14R WCI  27
ROSEAU         PTCLDY    32  27  80 NE5       30.13S WCI  27
WARROAD        CLOUDY    34  28  80 N6        30.14R WCI  29
THIEF RVR FALL CLOUDY   N/A N/A N/A NE8       30.12R
CROOKSTON      CLOUDY    34  34 100 NE3       30.11S
FOSSTON        MOCLDY    32  30  93 CALM      30.09S
DETROIT LAKES  CLEAR     32  32 100 CALM      30.08S
MOORHEAD       FOG       30  30 100 N6        30.11R VSB 1/4 WCI  24
PARK RAPIDS    CLEAR     31  24  75 CALM      30.07S
MAHNOMEN       FAIR      31  29  94 E3        30.08S
$$
MNZ006-009>011-018-025>026-281200-
   North Central Minnesota

CITY           SKY/WX    TMP DP  RH WIND       PRES   REMARKS
BAUDETTE       MOCLDY    33  27  78 N3        30.12R
FLAG ISLAND    MOCLDY    32  27  80 N7        30.14R WCI  26
INTL FALLS     CLOUDY    35  27  72 NE7       30.10R WCI  29
WASKISH        PTCLDY    30  28  93 CALM      30.10R
BIG FORK       PTCLDY    28  25  86 CALM      30.08R
LONGVILLE      CLEAR     25  25 100 CALM      30.09R
GRAND RAPIDS   CLEAR     27  25  92 S3        30.10R
CRANE LAKE     CLOUDY    25  23  93 CALM      30.11S
ORR            PTCLDY    28  25  86 CALM      30.06S
COOK           MOCLDY    30  27  86 CALM      30.08R
WALKER         FAIR      27  24  89 CALM      30.08S
$$
MNZ012-019>021-037-281200-
   Northeast Minnesota

CITY           SKY/WX    TMP DP  RH WIND       PRES   REMARKS
DULUTH         CLEAR     26  23  88 CALM      30.08S
ELY            CLOUDY    28  27  93 CALM      30.09R
HIBBING        PTCLDY    23  23 100 CALM      30.08R
EVELETH        CLOUDY    28  26  92 CALM      30.09S
DULUTH HARBOR  CLEAR     30  28  93 CALM      30.12R
TWO HARBORS    CLEAR     37  32  81 NW6       30.08S
SILVER BAY     CLOUDY    27  27 100 CALM      30.08S
GRAND MARAIS     N/A     32  30  92 CALM      30.10R
G MARAIS ARPRT PTCLDY    28  23  80 CALM      30.08R
$$
MNZ029>031-032-039>041-046>048-054>057-064-281200-
   West Central Minnesota

CITY           SKY/WX    TMP DP  RH WIND       PRES   REMARKS
FERGUS FALLS   CLEAR     34  34 100 CALM      30.12R FOG
WHEATON        FOG       28  28 100 NW6       30.11R VSB 1/4 WCI  22
MORRIS         CLEAR     34  30  86 CALM      30.07R
ALEXANDRIA     CLEAR     33  31  92 CALM      30.07R
ELBOW LAKE     FAIR      32  31  97 CALM      30.08R
WADENA         CLEAR     27  25  93 CALM      30.07S FOG
GLENWOOD       CLEAR     34  32  93 CALM      30.08R
APPLETON       CLEAR     34  30  86 CALM      30.08R
BENSON         CLEAR     32  28  86 CALM      30.09R
ORTONVILLE     CLEAR     34  30  86 CALM      30.09R
MADISON        CLEAR     37  37 100 CALM      30.08R
WILLMAR        FAIR      37  34  87 CALM      30.09R
$$
MNZ033>034-036-042>043-049>051-058-059-281200-
   Central Minnesota

CITY           SKY/WX    TMP DP  RH WIND       PRES   REMARKS
ST CLOUD       CLEAR     29  28  96 CALM      30.09R
SAUK CENTRE    FAIR      27  26  98 CALM      30.08R
PAYNESVILLE      N/A     30  30 100 CALM      30.09R
AITKIN         PTCLDY    25  21  86 CALM      30.07R
PINE RIVER     CLEAR     25  25 100 CALM      30.11R
BRAINERD       PTCLDY    27  25  92 CALM      30.08R
STAPLES        CLEAR     27  27 100 CALM      30.08R
LONG PRAIRIE   FAIR      30  30 100 CALM      30.08R
LITTLE FALLS   CLEAR     27  27 100 CALM      30.09R FOG
LITCHFIELD     CLEAR     37  36  93 CALM      30.09R
BUFFALO        CLEAR     31  29  91 CALM      30.09S
MAPLE LAKE     CLEAR     30  30 100 CALM      30.09S
HUTCHINSON     PTCLDY    34  33  97 CALM      30.09R
$$
MNZ037-044-045-052-053-281200-
   East Central Minnesota

CITY           SKY/WX    TMP DP  RH WIND       PRES   REMARKS
PRINCETON      CLEAR     28  28 100 CALM      30.09S
MORA           CLEAR     27  27 100 CALM      30.10S
CAMBRIDGE      CLEAR     30  27  86 CALM      30.08R
RUSH CITY      CLEAR     31  29  94 CALM      30.10R
MOOSE LAKE     CLEAR     27  25  93 CALM      30.08R
CLOQUET        CLEAR     25  25 100 CALM      30.08S
MCGREGOR       CLEAR     28  27  93 CALM      30.09S
$$
MNZ071>073-080-081-089-090-097-098-281200-
   Southwest Minnesota

CITY           SKY/WX    TMP DP  RH WIND       PRES   REMARKS
MONTEVIDEO     CLOUDY    37  34  87 CALM      30.09S
GRANITE FALLS  CLOUDY    38  35  88 CALM      30.09S
CANBY          CLOUDY    39  37  92 CALM      30.09R
MARSHALL       CLEAR     39  37  92 NW6       30.08R
REDWOOD FALLS  CLOUDY    39  32  76 N3        30.07R
OLIVIA         PTCLDY    36  32  87 CALM      30.07R
PIPESTONE      CLOUDY    36  30  80 CALM      30.06R FOG
WINDOM         CLEAR     36  36 100 CALM      30.07R
WORTHINGTON    MOCLDY    32  31  96 CALM      30.07R
JACKSON        PTCLDY    36  34  93 NW5       30.07R
TRACY          MOCLDY    41  38  89 W5        30.07R
SLAYTON        CLEAR     33  33  99 W7        30.07R FOG     WCI  27
$$
MNZ065>067-074>077-082>085-091>093-281200-
   South Central Minnesota

CITY           SKY/WX    TMP DP  RH WIND       PRES   REMARKS
MANKATO        FOG       36  36 100 SE6       30.08S VSB 1/4
NEW ULM        PTCLDY    34  30  86 CALM      30.07R
ST JAMES       PTCLDY    34  34 100 CALM      30.09R FOG
FAIRMONT       CLEAR     31  31 100 CALM      30.08S FOG
GLENCOE        CLEAR     32  32  99 CALM      30.08R
FARIBAULT      PTCLDY    30  30 100 CALM      30.09S FOG
OWATONNA       CLEAR     30  30 100 CALM      30.08S
WASECA         CLEAR     32  32 100 CALM      30.09S
ALBERT LEA     CLEAR     30  30 100 CALM      30.08R
$$
MNZ078>079-086>088-094>096-281200-
   Southeast Minnesota

CITY           SKY/WX    TMP DP  RH WIND       PRES   REMARKS
ROCHESTER      CLEAR     33  33 100 CALM      30.08R FOG
RED WING       FOG       30  28  93 CALM      30.09R VSB 1/2
STANTON        CLOUDY    31  29  94 CALM      30.08R
DODGE CENTER   FOG       30  30 100 CALM      30.08S VSB 1/4
WINONA         FOG       32  32 100 CALM      30.11R VSB 1/4
AUSTIN         CLEAR     30  28  93 CALM      30.08S
PRESTON        PTCLDY    36  34  94 CALM      30.09R
$$
ABBREVIATIONS USED IN REMARKS
   TC - TEMPERATURES IN CELSIUS
  WCI - WIND CHILL INDEX
   HX - HEAT INDEX
  VSB - VISIBILITY
$$




USA.gov is the U.S. government's official web portal to all federal, state and local government web resources and services.